Back to catalog

STARLINK-34947

AliveCommunicationsSSO
NORAD 65184·PAYLOAD·🇺🇸 United States

Launched Aug 14, 2025 from Vandenberg Space Force Base

Loading…

Next Passes (next 24 hours)

TLE

FreshSource: CelesTrak SupGP

Epoch: Sep 14, 2026, 21:04 UTC

1 65184C 25175L   26257.87826389 -.00132720  00000+0 -41201-2 0  2570
2 65184  97.2847 126.8816 0001523  90.0714  48.0584 15.33505904    12

Track STARLINK-34947 in real time with AllMySat

Download on the App Store